Weather History for Marshalltown, IA

Change the Weather History Date:

Tuesday, January 7, 2014

  Actual Average Record
Temperature  
Mean Temperature 0 °F 19 °F  
Max Temperature 10 °F 27 °F 57 °F (2003)
Min Temperature -11 °F 11 °F -11 °F (2014)
Degree Days  
Heating Degree Days 65 46  
Month to date heating degree days 439 322  
Since 1 July heating degree days 3443 3134  
Cooling Degree Days 0 0  
Month to date cooling degree days 0 0  
Year to date cooling degree days 0 0  
Moisture  
Dew Point -6 °F    
Average Humidity 78    
Maximum Humidity 86    
Minimum Humidity 69    
Precipitation  
Precipitation 0.00 in 0.02 in 0.04 in (2008)
Month to date precipitation T 0.16  
Sea Level Pressure  
Sea Level Pressure 30.27 in    
Wind  
Wind Speed 6 mph (SE)    
Max Wind Speed 12 mph    
Max Gust Speed 13 mph    
Visibility 10 miles    
Events      
T = Trace of Precipitation, MM = Missing Value Source: NWS Daily Summary

Daily Weather History Graph

Daily Weather History Graph

Search for Another Location

Airport:

Trip Planner

Search our weather history database for the weather conditions in past years. The results will help you decide how hot, cold, wet, or windy it might be!

Date:

Astronomy

Jan. 07, 2014 Rise Set
Actual Time 7:39 AM CST 4:56 PM CST
Civil Twilight 7:08 AM CST 5:27 PM CST
Nautical Twilight 6:33 AM CST 6:02 PM CST
Astronomical Twilight 5:59 AM CST 6:36 PM CST
Moon 11:20 AM CST (1/7) No Moon Set
Length of Visible Light 10h 19m
Length of Day
9h 16m
Waxing Crescent, 46% of the Moon is Illuminated
Jan 7
Waxing Crescent
Jan 7
First Quarter
Jan 15
Full
Jan 23
Last Quarter
Jan 30
New

Hourly Weather History & Observations

Time (CST) Temp. Windchill Dew Point Humidity Pressure Visibility Wind Dir Wind Speed Gust Speed Precip Events Conditions
12:53 AM -11.0 °F -26.2 °F -17.0 °F 75% 30.35 in 10.0 mi WSW 6.9 mph - N/A   Clear
1:53 AM -8.0 °F -25.0 °F -14.1 °F 75% 30.35 in 10.0 mi WSW 9.2 mph - N/A   Clear
2:53 AM -7.1 °F -22.8 °F -14.1 °F 72% 30.32 in 10.0 mi WSW 8.1 mph - N/A   Clear
3:53 AM -8.0 °F -23.9 °F -14.1 °F 75% 30.32 in 10.0 mi West 8.1 mph - N/A   Clear
4:53 AM -8.0 °F -16.9 °F -14.1 °F 75% 30.29 in 10.0 mi WSW 3.5 mph - N/A   Clear
5:53 AM -6.0 °F -20.1 °F -11.9 °F 75% 30.28 in 10.0 mi South 6.9 mph - N/A   Partly Cloudy
6:53 AM -5.1 °F -20.4 °F -11.0 °F 76% 30.29 in 10.0 mi SSW 8.1 mph - N/A   Overcast
7:53 AM -2.9 °F -15.0 °F -9.9 °F 72% 30.27 in 10.0 mi South 5.8 mph - N/A   Overcast
8:53 AM -2.0 °F -16.6 °F -9.0 °F 72% 30.27 in 10.0 mi SSE 8.1 mph - N/A   Partly Cloudy
9:53 AM 1.0 °F -11.7 °F -7.1 °F 69% 30.26 in 10.0 mi SE 6.9 mph - N/A   Overcast
10:53 AM 1.9 °F -12.9 °F -5.1 °F 72% 30.25 in 10.0 mi ESE 9.2 mph - N/A   Overcast
11:53 AM 5.0 °F -10.0 °F -2.9 °F 70% 30.20 in 10.0 mi ESE 10.4 mph - N/A   Overcast
12:53 PM 7.0 °F -7.5 °F -0.0 °F 73% 30.16 in 10.0 mi East 10.4 mph - N/A   Overcast
1:53 PM 9.0 °F -2.2 °F -0.9 °F 64% 30.17 in 10.0 mi East 6.9 mph - N/A   Scattered Clouds
2:53 PM 9.0 °F -0.9 °F -0.0 °F 67% 30.19 in 10.0 mi Variable 5.8 mph - N/A   Clear
3:53 PM 9.0 °F 2.4 °F -0.0 °F 67% 30.20 in 10.0 mi ESE 3.5 mph - N/A   Clear
4:53 PM 5.0 °F -5.6 °F -0.9 °F 76% 30.24 in 10.0 mi ENE 5.8 mph - N/A   Clear
5:53 PM 3.0 °F -9.3 °F -2.9 °F 76% 30.26 in 10.0 mi ENE 6.9 mph - N/A   Clear
6:53 PM 1.9 °F -10.6 °F -4.0 °F 76% 30.27 in 10.0 mi NE 6.9 mph - N/A   Clear
7:53 PM 3.0 °F -4.4 °F -2.9 °F 76% 30.28 in 10.0 mi ESE 3.5 mph - N/A   Mostly Cloudy
8:53 PM 3.9 °F - -0.9 °F 80% 30.29 in 10.0 mi Calm Calm - N/A   Overcast
9:53 PM 3.9 °F - -2.0 °F 76% 30.31 in 10.0 mi Calm Calm - N/A   Overcast
10:53 PM 3.9 °F - -0.9 °F 80% 30.30 in 10.0 mi Calm Calm - N/A   Overcast
11:53 PM -0.0 °F -9.9 °F -5.1 °F 79% 30.31 in 10.0 mi NE 4.6 mph - N/A   Clear